[[{"header":{"parameterUnit":"m.s-1","parameterCategory":1,"la1":30.2992,"la2":30.254,"lo1":-89.0895,"lo2":-89.0443,"dy":0.0025,"dx":0.0025,"nx":19,"ny":19,"refTime":"2026-05-12T09:00:00:Z","depth":0,"parameterNumber":2,"parameterNumberName":"U-component_of_WINDS"},"data":[0,0,0,-3.0279,-3.0282,-3.0384,-3.0385,-3.053,-3.0531,0,0,0,0,0,0,0,0,0,0,0,-3.0256,-3.0258,-3.0279,-3.0282,-3.0384,-3.0385,-3.053,-3.0531,0,0,0,0,0,0,0,0,0,0,0,-3.0256,-3.0257,-3.0259,-3.0282,-3.0384,-3.0385,-3.0529,-3.0447,0,0,0,0,0,0,0,0,0,0,-3.0345,-3.0331,-3.0257,-3.0259,-3.0283,-3.0384,-3.0385,-3.0443,-3.0452,-3.0489,0,-3.0523,0,-3.0529,-3.0542,-3.0542,0,0,0,-3.0277,-3.0323,-3.0344,-3.0259,-3.0284,-3.0384,-3.0337,-3.0448,-3.0459,-3.0502,-3.0525,-3.053,-3.0532,-3.0543,-3.0544,-3.0771,-3.0773,0,0,-3.0271,-3.0279,-3.0337,-3.0351,-3.0335,-3.0333,-3.034,-3.0454,-3.0481,-3.0525,-3.0533,-3.0534,-3.0544,-3.0545,-3.077,-3.0772,0,0,0,-3.0258,-3.0276,-3.0293,-3.0346,-3.0363,-3.0337,-3.0344,-3.0475,-3.048,-3.0534,-3.0536,-3.0545,-3.0547,-3.0769,-3.0771,-3.0845,0,0,0,-3.0255,-3.0268,-3.0291,-3.0297,-3.0361,-3.042,-3.0363,-3.0473,-3.0485,-3.0535,-3.0545,-3.0548,-3.0767,-3.077,-3.0839,-3.0879,0,0,0,-3.0247,-3.0267,-3.0284,-3.0297,-3.0341,-3.0418,-3.043,-3.0475,-3.0486,-3.0542,-3.0549,-3.0766,-3.0769,-3.0835,-3.0871,-3.0943,0,0,0,-3.0242,-3.0348,-3.0286,-3.0404,-3.0341,-3.0462,-3.0429,-3.0519,-3.0576,-3.0546,-3.0767,-3.0771,-3.0833,-3.0867,-3.0938,-3.1006,-3.1034,0,0,-3.038,-3.0365,-3.0434,-3.0381,-3.0516,-3.0446,-3.0592,-3.0636,-3.0634,-3.0726,-3.0732,-3.0841,-3.0871,-3.0942,-3.1187,-3.121,0,0,0,-3.0481,-3.0531,-3.0565,-3.0619,-3.0655,-3.069,-3.0711,-3.0727,-3.0805,-3.0683,-3.0885,-3.0902,-3.0943,-3.0976,-3.0995,-3.1031,-3.0785,-3.0785,-3.0784,-3.069,-3.0681,-3.0796,-3.08,-3.0853,-3.0873,-3.0916,-3.0942,-3.0918,-3.0966,-3.0994,-3.1143,-3.1181,-3.1196,-3.1233,-3.1027,-3.1027,-3.1027,-3.1028,-3.0894,-3.0965,-3.0929,-3.1028,-3.1019,-3.1102,-3.1126,-3.1106,-3.1184,-3.1121,-3.1157,-3.1092,-3.1221,-3.1254,-3.1033,-3.1032,-3.1031,-3.1031,-3.1031,-3.1032,-3.1064,-3.1082,-3.116,-3.1221,-3.1221,-3.1297,-3.1285,-3.1274,-3.131,-3.1339,-3.1338,-3.1337,-3.1324,-3.1325,-3.1325,-3.1326,-3.1326,-3.1326,-3.1169,-3.1186,-3.1251,-3.1299,-3.1332,-3.1375,-3.1397,-3.143,-3.1464,-3.1449,-3.1449,-3.1422,-3.1234,-3.1189,-3.1334,-3.1333,-3.1332,-3.1331,-3.1331,-3.1383,-3.1333,-3.1434,-3.1467,-3.1522,-3.1585,-3.1568,-3.1637,-3.1662,-3.17,-3.1665,-3.1527,-3.1511,-3.1495,-3.1458,-3.1664,-3.1664,-3.1664,-3.1664,-3.1502,-3.1491,-3.1592,-3.1647,-3.17,-3.1695,-3.1811,-3.1829,-3.1839,-3.1855,-3.1823,-3.1771,-3.1756,-3.1749,-3.1728,-3.1693,-3.1955,-3.1955,-3.1955,-3.1634,-3.1628,-3.1729,-3.1738,-3.178,-3.1817,-3.1926,-3.1992,-3.1993,-3.1967,-3.1868,-3.1855,-3.1772,-3.1744,-3.1718,-3.1686,-3.1621,0,0]},{"header":{"parameterUnit":"m.s-1","parameterCategory":1,"la1":30.2992,"la2":30.254,"lo1":-89.0895,"lo2":-89.0443,"dy":0.0025,"dx":0.0025,"nx":19,"ny":19,"refTime":"2026-05-12T09:00:00:Z","depth":0,"parameterNumber":3,"parameterNumberName":"V-component_of_WINDS"},"data":[0,0,0,-4.347,-4.347,-4.3465,-4.3465,-4.3479,-4.3479,0,0,0,0,0,0,0,0,0,0,0,-4.3485,-4.3486,-4.347,-4.347,-4.3465,-4.3465,-4.3479,-4.3479,0,0,0,0,0,0,0,0,0,0,0,-4.3485,-4.3485,-4.3486,-4.347,-4.3465,-4.3465,-4.3479,-4.3475,0,0,0,0,0,0,0,0,0,0,-4.3477,-4.3504,-4.3485,-4.3486,-4.347,-4.3465,-4.3465,-4.3475,-4.3475,-4.349,0,-4.3508,0,-4.3494,-4.3481,-4.3482,0,0,0,-4.346,-4.3503,-4.349,-4.3486,-4.3471,-4.3465,-4.3465,-4.3475,-4.3476,-4.3492,-4.3508,-4.3508,-4.3494,-4.3482,-4.3482,-4.3602,-4.3603,0,0,-4.3461,-4.3491,-4.3489,-4.3491,-4.3494,-4.3465,-4.3465,-4.3475,-4.3495,-4.3508,-4.3508,-4.3494,-4.3482,-4.3482,-4.3601,-4.3602,0,0,0,-4.3468,-4.3492,-4.3478,-4.3491,-4.3488,-4.3465,-4.3465,-4.3494,-4.3487,-4.3507,-4.3494,-4.3482,-4.3483,-4.36,-4.3601,-4.3682,0,0,0,-4.3468,-4.3496,-4.3478,-4.3497,-4.3489,-4.3491,-4.3484,-4.3486,-4.3486,-4.3494,-4.3482,-4.3483,-4.3598,-4.36,-4.3677,-4.3715,0,0,0,-4.3481,-4.3497,-4.3501,-4.3499,-4.3497,-4.349,-4.3483,-4.3485,-4.3479,-4.3482,-4.3483,-4.3598,-4.36,-4.3673,-4.3708,-4.3756,0,0,0,-4.3503,-4.3573,-4.3503,-4.3576,-4.3498,-4.354,-4.3483,-4.3513,-4.3525,-4.3482,-4.3598,-4.3601,-4.3672,-4.3704,-4.3751,-4.3802,-4.3825,0,0,-4.3609,-4.3587,-4.3627,-4.3564,-4.3628,-4.3539,-4.3613,-4.3595,-4.3567,-4.3592,-4.3594,-4.3679,-4.3708,-4.3755,-4.3946,-4.3966,0,0,0,-4.3671,-4.3701,-4.3711,-4.3723,-4.3711,-4.3703,-4.3671,-4.3664,-4.3683,-4.3586,-4.3707,-4.3724,-4.375,-4.3773,-4.3789,-4.381,-4.3613,-4.3612,-4.3612,-4.3865,-4.3825,-4.3889,-4.3849,-4.3861,-4.3826,-4.3833,-4.3817,-4.3774,-4.3803,-4.381,-4.3931,-4.3959,-4.3971,-4.3993,-4.3833,-4.3833,-4.3833,-4.3834,-4.4016,-4.4052,-4.3991,-4.4031,-4.3988,-4.4021,-4.399,-4.3957,-4.3982,-4.3923,-4.3944,-4.3884,-4.3993,-4.401,-4.3839,-4.3838,-4.3838,-4.3837,-4.3837,-4.4139,-4.4149,-4.4139,-4.4153,-4.4167,-4.4123,-4.4149,-4.4109,-4.4071,-4.4092,-4.4095,-4.4094,-4.4088,-4.4096,-4.4097,-4.4097,-4.4097,-4.4098,-4.4098,-4.4272,-4.4257,-4.4285,-4.4276,-4.4279,-4.4276,-4.424,-4.4241,-4.4232,-4.4201,-4.42,-4.4154,-4.4011,-4.3976,-4.4104,-4.4103,-4.4102,-4.4102,-4.4101,-4.4441,-4.4396,-4.4438,-4.4441,-4.4427,-4.4444,-4.4391,-4.4396,-4.4391,-4.4405,-4.4353,-4.4254,-4.4229,-4.4216,-4.4187,-4.4362,-4.4362,-4.4362,-4.4362,-4.4546,-4.4529,-4.4562,-4.4568,-4.4569,-4.4526,-4.4574,-4.4546,-4.451,-4.4505,-4.4473,-4.4431,-4.4419,-4.4401,-4.4384,-4.4356,-4.457,-4.457,-4.457,-4.4648,-4.4629,-4.4679,-4.4643,-4.4628,-4.4617,-4.4661,-4.467,-4.4619,-4.4578,-4.4499,-4.449,-4.4421,-4.4401,-4.436,-4.4334,-4.4283,0,0]}]]